Tracking 18945 objects as of 19-Jan-2018
HD Live streaming from Space Station
objects crossing your sky now

CZ-3A DEB

Track CZ-3A DEB now!


NORAD ID: 35557
Int'l Code: 2007-003R
Perigee: 336.9 km
Apogee: 28,944.0 km
Inclination: 23.0 °
Period: 505.2 minutes
Semi major axis: 21011 km
RCS: 0.1574 m2 (medium)
Launch date: February 2, 2007
Source: People's Republic of China (PRC)
Launch site: Xichang Space Center, China (XSC)

Note: This is SATELLITE DEBRIS
aabbcc
Your satellite tracking list
Your tracking list is empty




NASA's NSSDC Master Catalog

Two Line Element Set (TLE):
1 35557U 07003R   18018.25342300 +.00004580 +00000-0 +33731-2 0  9998
2 35557 022.9549 278.8925 6807487 338.4056 003.2135 02.85048430047052
Source of the keplerian elements: AFSPC